Mecheria, Algeria

12:26 PM CET on August 22, 2019 (GMT +0100)
Mecheria

Weather History for DAAY - June, 2019

Change the Weather History Date:

Friday, June 7, 2019

  Actual Average (WUND) Record (WUND)
Temperature  
Mean Temperature 78 °F -  
Max Temperature 97 °F - - (-1)
Min Temperature 59 °F - - (-1)
Cooling Degree Days 13    
Growing Degree Days 28 (Base 50)    
Moisture  
Dew Point 46 °F    
Average Humidity 36    
Maximum Humidity 68    
Minimum Humidity 4    
Precipitation  
Precipitation 0.00 in - - ()
Sea Level Pressure  
Sea Level Pressure 30.07 in    
Wind  
Wind Speed 7 mph ()    
Max Wind Speed 21 mph    
Max Gust Speed -    
Visibility 5.5 miles    
Events      
Averages and records for this station are not official NWS values.
T = Trace of Precipitation, MM = Missing Value Source: Averaged Metar Reports

Daily Weather History Graph

Daily Weather History Graph

Search for Another Location

Airport or City:

Astronomy

Jun. 07, 2019 Rise Set
Actual Time 5:50 AM CET 8:09 PM CET
Civil Twilight 5:22 AM CET 8:37 PM CET
Nautical Twilight 4:46 AM CET 9:13 PM CET
Astronomical Twilight 4:08 AM CET 9:51 PM CET
Moon 9:48 AM CET (6/7) No Moon Set
Length of Visible Light 15h 15m
Length of Day
14h 18m
Waxing Crescent, 20% of the Moon is Illuminated
Jun 7
Waxing Crescent
Jun 10
First Quarter
Jun 17
Full
Jun 25
Last Quarter
Jul 2
New

Hourly Weather History & Observations

Time (CET) Temp. Heat Index Dew Point Humidity Pressure Visibility Wind Dir Wind Speed Gust Speed Precip Events Conditions
1:00 AM 77.0 °F - 44.6 °F 32% 30.01 in - NNE 11.5 mph - N/A   Clear
2:00 AM 75.2 °F - 46.4 °F 36% 30.01 in - NNE 11.5 mph - N/A   Clear
4:00 AM 68.0 °F - 50.0 °F 52% 30.01 in - NNE 9.2 mph - N/A   Clear
5:00 AM 62.6 °F - 50.0 °F 63% 30.04 in - NNE 9.2 mph - N/A   Clear
6:00 AM 62.6 °F - 50.0 °F 63% 30.04 in - NNE 9.2 mph - N/A   Clear
7:00 AM 61 °F - 50 °F 57%  in 6 mi Calm Calm - -  
7:00 AM 60.8 °F - 50.0 °F 68% 30.09 in - Calm Calm - N/A   Clear
8:00 AM 62.6 °F - 50.0 °F 63% 30.09 in - Calm Calm - N/A   Clear
9:00 AM 68.0 °F - 51.8 °F 56% 30.09 in - Calm Calm - N/A   Clear
10:00 AM 72 °F - 54 °F 42%  in 6 mi Calm Calm - -  
10:00 AM 71.6 °F - 53.6 °F 53% 30.09 in - Calm Calm - N/A   Clear
11:00 AM 77.0 °F - 53.6 °F 44% 30.12 in - Calm Calm - N/A   Clear
12:00 PM 82.4 °F 81.4 °F 53.6 °F 37% 30.12 in - Calm Calm - N/A   Clear
1:00 PM 88 °F - 53 °F 20%  in 6 mi Calm Calm - -  
1:00 PM 87.8 °F - 51.8 °F 29% 30.12 in - Calm Calm - N/A   Clear
2:00 PM 91.4 °F - 51.8 °F 26% 30.09 in - Calm Calm - N/A   Clear
3:00 PM 96.8 °F - 46.4 °F 18% 30.06 in 6.2 mi South 16.1 mph - N/A   Partly Cloudy
4:00 PM 97 °F - 36 °F 6%  in 6 mi South 16.1 mph - -   Scattered Clouds
4:00 PM 96.8 °F - 35.6 °F 12% 30.06 in 6.2 mi South 16.1 mph - N/A   Partly Cloudy
5:00 PM 96.8 °F - 28.4 °F 9% 30.04 in 6.2 mi South 16.1 mph - N/A   Partly Cloudy
6:00 PM 95.0 °F - 26.6 °F 9% 30.04 in 6.2 mi South 13.8 mph - N/A   Partly Cloudy
7:00 PM 94 °F - 26 °F 4%  in 6 mi South 18.4 mph - -   Scattered Clouds
7:00 PM 93.2 °F - 26.6 °F 9% 30.04 in 6.2 mi South 18.4 mph - N/A   Partly Cloudy
8:00 PM 84.2 °F - 35.6 °F 18% 30.06 in 3.7 mi NNE 20.7 mph - N/A   Unknown
9:00 PM 78.8 °F - 46.4 °F 32% 30.12 in 3.7 mi NNE 18.4 mph - N/A   Unknown
10:00 PM 73.4 °F - 51.8 °F 47% 30.12 in 3.7 mi NNE 18.4 mph - N/A   Unknown
11:00 PM 71.6 °F - 55.4 °F 57% 30.15 in 5.0 mi North 18.4 mph - N/A   Unknown